Simultaneous Nadir Overpasses (SNOs) Predictions

Prediction of SNOs between METOP-A and TERRA Satellite Orbit:

Table of predicted SNOs for the next 14.0 days since TLE Epoch: 11/16/2013
Index Date (METOP-A) Time (METOP-A) Lat,Lon (METOP-A) SZA (METOP-A ) Date (TERRA) Time (TERRA) Lat,Lon (TERRA) SZA (TERRA ) Distance(km) Time Diff (sec)
1 11/17/2013 07:23:25 -81.32, -63.40 76.56 11/17/2013 07:23:53 -81.33, -63.24 76.52 2.88 28
2 11/17/2013 08:14:04 81.33, 104.49 103.53 11/17/2013 08:13:19 81.33, 104.52 103.51 0.92 45
3 11/20/2013 02:57:45 -81.32, 3.19 75.90 11/20/2013 02:58:07 -81.33, 3.22 75.88 0.80 22
4 11/20/2013 03:48:23 81.33, 171.06 104.18 11/20/2013 03:47:32 81.33, 170.95 104.15 1.90 51
5 11/22/2013 22:32:05 -81.32, 69.31 75.34 11/22/2013 22:32:20 -81.32, 69.47 75.32 2.55 15
6 11/22/2013 23:22:44 81.32,-122.84 104.73 11/22/2013 23:21:46 81.32,-122.83 104.70 0.49 58
7 11/25/2013 18:06:25 -81.32, 135.74 74.81 11/25/2013 18:06:33 -81.32, 135.88 74.79 2.34 8
8 11/25/2013 18:57:04 81.32, -56.44 105.26 11/25/2013 18:55:59 81.32, -56.44 105.23 0.75 65
9 11/28/2013 12:50:24 81.13, 26.90 104.70 11/28/2013 12:51:37 80.87, 27.92 104.64 33.77 73
10 11/28/2013 13:40:44 -81.32,-157.53 74.29 11/28/2013 13:40:45 -81.32,-157.54 74.29 0.27 1




NCC Satellite Simultaneous Nadir Overpasses (SNOs) Prediction Service
